Location: Sears
(37.7625°N, 100.1060°W)
Time: 12:29:06
(UTC+00:00)

Cosmos 1190 Rocket - Pass Details

Date: 29 October 2020
Orbit: 757 x 779 km, 74.1° (Epoch: 04 December)

Event Time Altitude Azimuth Distance (km) Brightness Sun altitude
Rises 12:05:59 0° 198° (SSW) 3,226 7.1 -11.9°
Reaches altitude 10° 12:08:22 10° 199° (SSW) 2,300 6.4 -11.4°
Maximum altitude 12:13:35 84° 286° (WNW) 773 4.0 -10.4°
Drops below altitude 10° 12:18:49 10° 17° (NNE) 2,300 6.6 -9.4°
Sets 12:21:12 0° 18° (NNE) 3,227 7.3 -8.9°
